Tracking 18980 objects as of 22-Feb-2018
HD Live streaming from Space Station
objects crossing your sky now

FENGYUN 1C DEB

Track FENGYUN 1C DEB now!
10-day predictions


NORAD ID: 29820
Int'l Code: 1999-025DN
Perigee: 854.3 km
Apogee: 953.3 km
Inclination: 99.1 °
Period: 102.9 minutes
Semi major axis: 7274 km
RCS: 0.0938 m2 (small)
Launch date: May 10, 1999
Source: People's Republic of China (PRC)
Launch site: Taiyaun Space Center, China (TSC)

Note: This is SATELLITE DEBRIS
aabbcc
Your satellite tracking list
Your tracking list is empty




NASA's NSSDC Master Catalog

Two Line Element Set (TLE):
1 29820U 99025DN  18052.94267663 +.00000209 +00000-0 +17146-3 0  9998
2 29820 099.0852 085.6947 0068017 203.0942 225.5605 13.99178503566656
Source of the keplerian elements: AFSPC